| time (UTC) | temp C | wind direction | speed KPH | gust KPH | rain 1hr cm | rain 24hr cm | rain mn cm | humidity % | barometer mb |
| 20260503035944 | 11 | 178 | 3.2 | 8.0 | 0.00 | 0.51 | 0.00 | 91 | 1008.9 |
| 20260503035441 | 11 | 188 | 0.0 | 8.0 | 0.00 | 0.51 | 0.00 | 91 | 1009.0 |
| 20260503035027 | 11 | 212 | 0.0 | 3.2 | 0.00 | 0.51 | 0.00 | 91 | 1009.0 |
| 20260503034253 | 11 | 212 | 0.0 | 4.8 | 0.00 | 0.51 | 0.00 | 91 | 1008.9 |
| 20260503033443 | 11 | 212 | 0.0 | 6.4 | 0.00 | 0.51 | 0.00 | 91 | 1009.0 |
| 20260503032943 | 11 | 212 | 1.6 | 6.4 | 0.00 | 0.51 | 0.00 | 91 | 1009.1 |
| 20260503032443 | 11 | 203 | 0.0 | 4.8 | 0.00 | 0.51 | 0.00 | 91 | 1009.0 |
| 20260503031940 | 11 | 203 | 1.6 | 6.4 | 0.00 | 0.51 | 0.00 | 91 | 1009.0 |
| 20260503031440 | 11 | 203 | 3.2 | 6.4 | 0.00 | 0.51 | 0.00 | 91 | 1009.0 |
| 20260503030939 | 11 | 202 | 1.6 | 4.8 | 0.00 | 0.51 | 0.00 | 91 | 1009.0 |
| 20260503030439 | 11 | 202 | 1.6 | 4.8 | 0.00 | 0.51 | 0.00 | 91 | 1009.0 |
| 20260503025939 | 11 | 202 | 1.6 | 4.8 | 0.00 | 0.51 | 0.00 | 91 | 1009.2 |
| 20260503025440 | 11 | 200 | 1.6 | 6.4 | 0.00 | 0.51 | 0.00 | 91 | 1009.1 |
| 20260503024939 | 11 | 196 | 1.6 | 6.4 | 0.00 | 0.51 | 0.00 | 91 | 1009.1 |
| 20260503024441 | 12 | 185 | 1.6 | 6.4 | 0.00 | 0.51 | 0.00 | 91 | 1009.0 |
| 20260503023939 | 12 | 206 | 0.0 | 9.7 | 0.00 | 0.51 | 0.00 | 91 | 1009.1 |
| 20260503023439 | 12 | 180 | 1.6 | 9.7 | 0.00 | 0.51 | 0.00 | 91 | 1009.1 |
| 20260503022938 | 12 | 179 | 1.6 | 6.4 | 0.00 | 0.51 | 0.00 | 91 | 1009.1 |
| 20260503022731 | 12 | 188 | 1.6 | 6.4 | 0.00 | 0.51 | 0.00 | 91 | 1009.2 |
| 20260503021938 | 12 | 212 | 3.2 | 6.4 | 0.00 | 0.51 | 0.00 | 91 | 1009.3 |
| 20260503021438 | 12 | 197 | 1.6 | 6.4 | 0.00 | 0.51 | 0.00 | 91 | 1009.3 |
| 20260503021245 | 12 | 207 | 3.2 | 8.0 | 0.00 | 0.51 | 0.00 | 91 | 1009.3 |
| 20260503020440 | 12 | 196 | 1.6 | 8.0 | 0.00 | 0.51 | 0.00 | 91 | 1009.4 |
| 20260503015936 | 12 | 202 | 3.2 | 8.0 | 0.00 | 0.51 | 0.00 | 91 | 1009.5 |
| 20260503015439 | 12 | 192 | 1.6 | 6.4 | 0.00 | 0.51 | 0.00 | 91 | 1009.5 |
| 20260503014938 | 12 | 200 | 1.6 | 4.8 | 0.00 | 0.51 | 0.00 | 91 | 1009.6 |
| 20260503014737 | 12 | 195 | 3.2 | 8.0 | 0.00 | 0.51 | 0.00 | 91 | 1009.6 |
| 20260503013937 | 12 | 219 | 3.2 | 8.0 | 0.00 | 0.51 | 0.00 | 91 | 1009.6 |
| 20260503013730 | 12 | 207 | 3.2 | 9.7 | 0.00 | 0.51 | 0.00 | 91 | 1009.7 |
| 20260503013112 | 12 | 189 | 0.0 | 6.4 | 0.00 | 0.51 | 0.00 | 91 | 1009.7 |
| 20260503013019 | 12 | 190 | 4.8 | 9.7 | 0.00 | 0.51 | 0.00 | 91 | 1009.7 |
| 20260503012243 | 12 | 207 | 3.2 | 6.4 | 0.00 | 0.51 | 0.00 | 91 | 1009.7 |
| 20260503011737 | 12 | 202 | 1.6 | 8.0 | 0.00 | 0.51 | 0.00 | 91 | 1009.7 |
| 20260503011248 | 12 | 220 | 3.2 | 8.0 | 0.00 | 0.51 | 0.00 | 91 | 1009.8 |
| 20260503010733 | 12 | 230 | 4.8 | 8.0 | 0.00 | 0.51 | 0.00 | 91 | 1009.8 |
| 20260503005934 | 12 | 196 | 3.2 | 8.0 | 0.00 | 0.51 | 0.00 | 91 | 1009.9 |
| 20260503005726 | 12 | 206 | 1.6 | 9.7 | 0.00 | 0.51 | 0.00 | 91 | 1009.9 |
| 20260503005246 | 12 | 220 | 1.6 | 11.3 | 0.00 | 0.51 | 0.00 | 91 | 1010.0 |
| 20260503004433 | 12 | 223 | 4.8 | 11.3 | 0.00 | 0.51 | 0.00 | 91 | 1010.0 |
| 20260503003931 | 12 | 214 | 4.8 | 9.7 | 0.00 | 0.51 | 0.00 | 90 | 1010.0 |
| 20260503003431 | 12 | 223 | 4.8 | 6.4 | 0.00 | 0.51 | 0.00 | 91 | 1010.0 |
| 20260503002930 | 12 | 196 | 3.2 | 8.0 | 0.00 | 0.51 | 0.00 | 91 | 1010.0 |
| 20260503002430 | 12 | 204 | 3.2 | 8.0 | 0.00 | 0.51 | 0.00 | 91 | 1010.1 |
| 20260503001930 | 12 | 217 | 4.8 | 6.4 | 0.00 | 0.51 | 0.00 | 90 | 1010.1 |
| 20260503001433 | 12 | 219 | 0.0 | 6.4 | 0.00 | 0.51 | 0.00 | 90 | 1010.2 |
| 20260503000932 | 13 | 195 | 0.0 | 6.4 | 0.00 | 0.51 | 0.00 | 90 | 1010.2 |
| 20260503000431 | 13 | 183 | 0.0 | 6.4 | 0.00 | 0.51 | 0.00 | 90 | 1010.2 |
| 20260502235931 | 13 | 204 | 1.6 | 8.0 | 0.00 | 0.51 | 0.00 | 90 | 1010.3 |
| 20260502235431 | 13 | 213 | 3.2 | 8.0 | 0.00 | 0.51 | 0.00 | 91 | 1010.3 |
| 20260502234934 | 13 | 197 | 4.8 | 8.0 | 0.00 | 0.51 | 0.00 | 90 | 1010.3 |
| 20260502234429 | 13 | 202 | 4.8 | 8.0 | 0.00 | 0.51 | 0.00 | 90 | 1010.4 |
| 20260502234248 | 13 | 182 | 3.2 | 8.0 | 0.00 | 0.51 | 0.00 | 90 | 1010.3 |
| 20260502233428 | 13 | 223 | 0.0 | 9.7 | 0.00 | 0.51 | 0.00 | 90 | 1010.2 |
| 20260502232929 | 13 | 213 | 3.2 | 9.7 | 0.00 | 0.51 | 0.00 | 90 | 1010.3 |
| 20260502232427 | 13 | 202 | 6.4 | 11.3 | 0.00 | 0.51 | 0.00 | 91 | 1010.4 |
| 20260502231928 | 13 | 195 | 3.2 | 11.3 | 0.00 | 0.51 | 0.00 | 91 | 1010.4 |
| 20260502231430 | 13 | 182 | 6.4 | 9.7 | 0.00 | 0.51 | 0.00 | 91 | 1010.4 |
| 20260502230928 | 13 | 182 | 6.4 | 8.0 | 0.00 | 0.51 | 0.00 | 91 | 1010.4 |
| 20260502230429 | 13 | 192 | 1.6 | 8.0 | 0.00 | 0.51 | 0.00 | 91 | 1010.5 |
| 20260502225926 | 13 | 192 | 1.6 | 11.3 | 0.00 | 0.51 | 0.51 | 91 | 1010.5 |
| 20260502225549 | 13 | 169 | 6.4 | 14.5 | 0.00 | 0.51 | 0.51 | 90 | 1010.4 |
| 20260502225519 | 13 | 173 | 3.2 | 11.3 | 0.00 | 0.51 | 0.51 | 91 | 1010.4 |
| 20260502224417 | 13 | 214 | 4.8 | 14.5 | 0.00 | 0.51 | 0.51 | 90 | 1010.4 |
| 20260502223913 | 13 | 214 | 3.2 | 6.4 | 0.00 | 0.51 | 0.51 | 90 | 1010.4 |
| 20260502223413 | 13 | 213 | 3.2 | 6.4 | 0.00 | 0.51 | 0.51 | 90 | 1010.4 |
| 20260502223236 | 13 | 189 | 1.6 | 8.0 | 0.00 | 0.51 | 0.51 | 90 | 1010.4 |
| 20260502222404 | 13 | 193 | 6.4 | 8.0 | 0.00 | 0.51 | 0.51 | 90 | 1010.4 |
| 20260502221903 | 13 | 188 | 0.0 | 8.0 | 0.00 | 0.51 | 0.51 | 91 | 1010.4 |
| 20260502221405 | 13 | 183 | 1.6 | 6.4 | 0.00 | 0.51 | 0.51 | 91 | 1010.3 |
| 20260502220903 | 13 | 168 | 0.0 | 3.2 | 0.00 | 0.51 | 0.51 | 90 | 1010.3 |
| 20260502220648 | 13 | 166 | 0.0 | 0.0 | 0.00 | 0.51 | 0.41 | 90 | 1010.3 |
| 20260502220631 | 13 | 166 | 0.0 | 0.0 | 0.00 | 0.51 | 0.41 | 90 | 1010.4 |
| 20260502220552 | 13 | 166 | 1.6 | 3.2 | 0.00 | 0.51 | 0.51 | 90 | 1010.5 |
| 20260502214903 | 13 | 166 | 0.0 | 1.6 | 0.00 | 0.51 | 0.41 | 90 | 1010.4 |
| 20260502214405 | 13 | 166 | 0.0 | 3.2 | 0.00 | 0.51 | 0.41 | 90 | 1010.5 |
| 20260502213902 | 13 | 166 | 1.6 | 3.2 | 0.00 | 0.51 | 0.41 | 90 | 1010.5 |
| 20260502213403 | 13 | 166 | 0.0 | 6.4 | 0.00 | 0.51 | 0.41 | 90 | 1010.7 |
| 20260502212904 | 13 | 168 | 1.6 | 6.4 | 0.00 | 0.51 | 0.41 | 90 | 1010.7 |
| 20260502212403 | 13 | 175 | 3.2 | 6.4 | 0.00 | 0.51 | 0.41 | 90 | 1010.9 |
| 20260502211903 | 14 | 142 | 4.8 | 4.8 | 0.00 | 0.51 | 0.41 | 90 | 1010.9 |
| 20260502211710 | 14 | 147 | 1.6 | 3.2 | 0.03 | 0.51 | 0.41 | 90 | 1010.9 |
| 20260502210908 | 14 | 155 | 3.2 | 3.2 | 0.03 | 0.51 | 0.41 | 90 | 1010.9 |
| 20260502210404 | 14 | 133 | 1.6 | 3.2 | 0.03 | 0.51 | 0.41 | 90 | 1011.0 |
| 20260502205953 | 14 | 133 | 0.0 | 3.2 | 0.13 | 0.51 | 0.51 | 90 | 1011.0 |
| 20260502205402 | 14 | 133 | 1.6 | 1.6 | 0.13 | 0.51 | 0.51 | 90 | 1011.0 |
| 20260502204903 | 14 | 133 | 1.6 | 1.6 | 0.13 | 0.51 | 0.51 | 90 | 1011.1 |
| 20260502204404 | 14 | 133 | 1.6 | 1.6 | 0.13 | 0.51 | 0.51 | 90 | 1011.2 |
| 20260502204223 | 14 | 133 | 0.0 | 0.0 | 0.13 | 0.51 | 0.51 | 90 | 1011.2 |
| 20260502203404 | 14 | 0.0 | 0.0 | 0.13 | 0.51 | 0.51 | 89 | 1011.2 | |
| 20260502203228 | 14 | 133 | 1.6 | 3.2 | 0.13 | 0.51 | 0.51 | 89 | 1011.3 |
| 20260502202402 | 14 | 133 | 1.6 | 3.2 | 0.13 | 0.51 | 0.51 | 89 | 1011.3 |
| 20260502201903 | 14 | 0.0 | 0.0 | 0.13 | 0.51 | 0.51 | 89 | 1011.3 | |
| 20260502201403 | -17 | 161 | 0.0 | 4.8 | 0.10 | 0.51 | 0.41 | 1011.3 | |
| 20260502200902 | 14 | 161 | 0.0 | 4.8 | 0.10 | 0.51 | 0.41 | 89 | 1011.4 |
| 20260502200403 | 14 | 164 | 3.2 | 4.8 | 0.10 | 0.51 | 0.41 | 89 | 1011.3 |
| 20260502195903 | 14 | 164 | 3.2 | 4.8 | 0.00 | 0.41 | 0.38 | 88 | 1011.4 |
| 20260502195402 | 14 | 251 | 3.2 | 4.8 | 0.00 | 0.41 | 0.38 | 88 | 1011.4 |
| 20260502194903 | 14 | 251 | 3.2 | 4.8 | 0.00 | 0.41 | 0.38 | 88 | 1011.3 |
| 20260502194403 | -17 | 0.0 | 0.0 | 0.00 | 0.41 | 0.38 | 1011.3 | ||
| 20260502193903 | -17 | 0.0 | 0.0 | 0.00 | 0.41 | 0.38 | 1011.4 | ||
| 20260502193402 | -17 | 251 | 0.0 | 0.0 | 0.00 | 0.41 | 0.38 | 1011.4 | |
| 20260502192903 | -17 | 251 | 0.0 | 0.0 | 0.00 | 0.41 | 0.38 | 1011.4 | |
| 20260502192403 | 15 | 251 | 0.0 | 0.0 | 0.00 | 0.41 | 0.38 | 87 | 1011.4 |
| 20260502192218 | 15 | 251 | 0.0 | 0.0 | 0.00 | 0.41 | 0.38 | 87 | 1011.4 |
| 20260502191402 | 15 | 251 | 0.0 | 0.0 | 0.00 | 0.41 | 0.41 | 87 | 1011.3 |
| 20260502190910 | -17 | 251 | 1.6 | 1.6 | 0.03 | 0.41 | 0.41 | 1011.3 | |
| 20260502190658 | -17 | 251 | 1.6 | 1.6 | 0.03 | 0.41 | 0.41 | 1011.3 | |
| 20260502185856 | 15 | 251 | 0.0 | 0.0 | 0.03 | 0.41 | 0.05 | 86 | 1011.3 |
| 20260502185349 | 15 | 251 | 0.0 | 1.6 | 0.05 | 0.41 | 0.05 | 86 | 1011.4 |
| 20260502184849 | 15 | 251 | 1.6 | 1.6 | 0.05 | 0.41 | 0.05 | 86 | 1011.4 |
| 20260502184347 | 15 | 251 | 0.0 | 1.6 | 0.05 | 0.41 | 0.05 | 86 | 1011.5 |
| 20260502183847 | 15 | 251 | 0.0 | 1.6 | 0.05 | 0.41 | 0.05 | 86 | 1011.5 |
| 20260502183348 | 15 | 252 | 0.0 | 0.0 | 0.08 | 0.41 | 0.05 | 86 | 1011.5 |
| 20260502182848 | 15 | 252 | 0.0 | 0.0 | 0.08 | 0.41 | 0.05 | 86 | 1011.6 |
| 20260502182347 | 15 | 252 | 0.0 | 0.0 | 0.08 | 0.41 | 0.05 | 86 | 1011.7 |
| 20260502181849 | 15 | 252 | 0.0 | 0.0 | 0.08 | 0.41 | 0.05 | 86 | 1011.7 |
| 20260502181349 | -17 | 252 | 0.0 | 0.0 | 0.08 | 0.41 | 0.05 | 1011.6 | |
| 20260502180850 | 15 | 252 | 0.0 | 0.0 | 0.08 | 0.38 | 0.05 | 85 | 1011.8 |
| 20260502180351 | 15 | 251 | 0.0 | 4.8 | 0.08 | 0.38 | 0.36 | 85 | 1011.9 |
| 20260502164347 | 20 | 166 | 1.6 | 9.7 | 0.00 | 0.00 | 0.00 | 50 | 1011.6 |
| 20260502163849 | 21 | 245 | 4.8 | 9.7 | 0.00 | 0.00 | 0.00 | 50 | 1012.0 |
| 20260502163347 | 21 | 204 | 3.2 | 6.4 | 0.00 | 0.00 | 0.00 | 50 | 1012.0 |
| 20260502163217 | 22 | 230 | 6.4 | 6.4 | 0.00 | 0.00 | 0.00 | 44 | 1011.8 |
| 20260502162350 | 22 | 196 | 1.6 | 3.2 | 0.00 | 0.00 | 0.00 | 44 | 1011.8 |
| 20260502161849 | 22 | 186 | 3.2 | 3.2 | 0.00 | 0.00 | 0.00 | 44 | 1011.7 |
| 20260502161349 | 22 | 213 | 1.6 | 1.6 | 0.00 | 0.00 | 0.00 | 44 | 1011.9 |
| 20260502160846 | 22 | 216 | 1.6 | 1.6 | 0.00 | 0.00 | 0.00 | 44 | 1012.1 |
| 20260502160345 | 22 | 216 | 1.6 | 1.6 | 0.00 | 0.00 | 0.00 | 44 | 1012.2 |
| 20260502152340 | -17 | 182 | 6.4 | 6.4 | 0.00 | 0.00 | 0.00 | 1012.9 | |
| 20260502151841 | -17 | 202 | 0.0 | 6.4 | 0.00 | 0.00 | 0.00 | 1012.9 | |
| 20260502151341 | -17 | 244 | 4.8 | 6.4 | 0.00 | 0.00 | 0.00 | 1013.0 | |
| 20260502150841 | 24 | 251 | 3.2 | 4.8 | 0.00 | 0.00 | 0.00 | 42 | 1013.0 |
| 20260502150341 | 24 | 255 | 11.3 | 11.3 | 0.00 | 0.00 | 0.00 | 42 | 1013.0 |
| 20260502130331 | -17 | 237 | 8.0 | 8.0 | 0.00 | 0.00 | 0.00 | 1015.0 | |
| 20260502123629 | 22 | 141 | 4.8 | 4.8 | 0.00 | 0.00 | 0.00 | 51 | 1015.2 |
| 20260502122830 | -17 | 0.0 | 0.0 | 0.00 | 0.00 | 0.00 | 1015.3 | ||
| 20260502122330 | 22 | 235 | 8.0 | 11.3 | 0.00 | 0.00 | 0.00 | 51 | 1015.3 |
| 20260502121832 | 22 | 235 | 8.0 | 11.3 | 0.00 | 0.00 | 0.00 | 51 | 1015.5 |
| 20260502121323 | 22 | 233 | 4.8 | 6.4 | 0.00 | 0.00 | 0.00 | 51 | 1015.7 |
| 20260502121140 | 21 | 234 | 1.6 | 11.3 | 0.00 | 0.00 | 0.00 | 49 | 1015.7 |
| 20260502120320 | 21 | 197 | 9.7 | 11.3 | 0.00 | 0.00 | 0.00 | 55 | 1015.7 |
| 20260502115821 | 21 | 203 | 3.2 | 3.2 | 0.00 | 0.00 | 0.00 | 55 | 1015.8 |
| 20260502115321 | 20 | 290 | 1.6 | 8.0 | 0.00 | 0.00 | 0.00 | 55 | 1015.8 |
| 20260502114823 | 20 | 292 | 8.0 | 8.0 | 0.00 | 0.00 | 0.00 | 55 | 1016.0 |
| 20260502114322 | 20 | 0.0 | 0.0 | 0.00 | 0.00 | 0.00 | 55 | 1016.0 | |
| 20260502113812 | 20 | 254 | 0.0 | 0.0 | 0.00 | 0.00 | 0.00 | 52 | 1016.0 |
| 20260502113604 | 20 | 254 | 0.0 | 3.2 | 0.00 | 0.00 | 0.00 | 52 | 1016.1 |
| 20260502112808 | -17 | 224 | 3.2 | 4.8 | 0.00 | 0.00 | 0.00 | 1016.2 | |
| 20260502112306 | -17 | 219 | 4.8 | 4.8 | 0.00 | 0.00 | 0.00 | 1016.3 | |
| 20260502111812 | 19 | 266 | 4.8 | 9.7 | 0.00 | 0.00 | 0.00 | 54 | 1016.3 |
| 20260502111305 | 19 | 255 | 6.4 | 9.7 | 0.00 | 0.00 | 0.00 | 54 | 1016.5 |
| 20260502110802 | 19 | 269 | 3.2 | 8.0 | 0.00 | 0.00 | 0.00 | 57 | 1016.6 |
| 20260502110303 | 19 | 237 | 6.4 | 8.0 | 0.00 | 0.00 | 0.00 | 57 | 1016.7 |
| 20260502105801 | 19 | 257 | 3.2 | 11.3 | 0.00 | 0.00 | 0.00 | 57 | 1016.7 |
| 20260502105606 | 19 | 282 | 6.4 | 11.3 | 0.00 | 0.00 | 0.00 | 57 | 1016.7 |
| 20260502104802 | 18 | 202 | 6.4 | 8.0 | 0.00 | 0.00 | 0.00 | 57 | 1016.7 |
| 20260502104303 | 19 | 244 | 3.2 | 11.3 | 0.00 | 0.00 | 0.00 | 57 | 1016.7 |
| 20260502104127 | 19 | 238 | 8.0 | 11.3 | 0.00 | 0.00 | 0.00 | 58 | 1016.8 |
| 20260502103424 | 19 | 204 | 4.8 | 8.0 | 0.00 | 0.00 | 0.00 | 58 | 1016.9 |
| 20260502103404 | 19 | 196 | 9.7 | 9.7 | 0.00 | 0.00 | 0.00 | 58 | 1016.9 |
| 20260502102254 | -17 | 204 | 4.8 | 8.0 | 0.00 | 0.00 | 0.00 | 1016.9 | |
| 20260502101753 | -17 | 176 | 0.0 | 0.0 | 0.00 | 0.00 | 0.00 | 1016.7 | |
| 20260502101600 | 18 | 162 | 6.4 | 8.0 | 0.00 | 0.00 | 0.00 | 56 | 1016.8 |
| 20260502101111 | 18 | 162 | 6.4 | 8.0 | 0.00 | 0.00 | 0.00 | 56 | 1017.0 |
| 20260502100247 | 18 | 186 | 3.2 | 4.8 | 0.00 | 0.00 | 0.00 | 64 | 1016.9 |
| 20260502091234 | 16 | 193 | 4.8 | 4.8 | 0.00 | 0.00 | 0.00 | 75 | 1017.3 |
| 20260502091150 | 16 | 202 | 3.2 | 6.4 | 0.00 | 0.00 | 0.00 | 80 | 1017.5 |
| 20260502091146 | 16 | 193 | 4.8 | 4.8 | 0.00 | 0.00 | 0.00 | 80 | 1017.4 |
| 20260502071228 | 11 | 227 | 4.8 | 4.8 | 0.00 | 0.00 | 0.00 | 90 | 1017.8 |
| 20260502070726 | 10 | 227 | 3.2 | 6.4 | 0.00 | 0.00 | 0.00 | 90 | 1017.9 |
| 20260502070527 | 10 | 226 | 1.6 | 6.4 | 0.00 | 0.00 | 0.00 | 90 | 1018.0 |
| 20260502065725 | 10 | 209 | 3.2 | 4.8 | 0.00 | 0.00 | 0.00 | 90 | 1017.8 |
| 20260502065213 | 10 | 228 | 0.0 | 1.6 | 0.00 | 0.00 | 0.00 | 90 | 1017.8 |
| 20260502064816 | 9 | 228 | 1.6 | 3.2 | 0.00 | 0.00 | 0.00 | 90 | 1017.9 |
| 20260502064753 | 10 | 228 | 0.0 | 3.2 | 0.00 | 0.00 | 0.00 | 90 | 1017.9 |
| 20260502063716 | 9 | 228 | 3.2 | 4.8 | 0.00 | 0.00 | 0.00 | 90 | 1017.9 |
| 20260502063212 | 9 | 227 | 1.6 | 4.8 | 0.00 | 0.00 | 0.00 | 90 | 1017.9 |
| 20260502062711 | 9 | 228 | 0.0 | 4.8 | 0.00 | 0.00 | 0.00 | 90 | 1018.0 |
| 20260502062211 | 9 | 228 | 0.0 | 6.4 | 0.00 | 0.00 | 0.00 | 90 | 1018.0 |
| 20260502061714 | 9 | 228 | 3.2 | 6.4 | 0.00 | 0.00 | 0.00 | 90 | 1017.9 |
| 20260502061206 | 8 | 228 | 3.2 | 6.4 | 0.00 | 0.00 | 0.00 | 90 | 1017.9 |
| 20260502060706 | 8 | 230 | 0.0 | 4.8 | 0.00 | 0.00 | 0.00 | 90 | 1017.9 |
| 20260502060206 | 8 | 230 | 0.0 | 4.8 | 0.00 | 0.00 | 0.00 | 90 | 1017.8 |
| 20260502055704 | 8 | 228 | 1.6 | 4.8 | 0.00 | 0.00 | 0.00 | 90 | 1017.8 |
| 20260502055206 | 8 | 230 | 1.6 | 4.8 | 0.00 | 0.00 | 0.00 | 90 | 1017.8 |
| 20260502054703 | 8 | 228 | 3.2 | 4.8 | 0.00 | 0.00 | 0.00 | 90 | 1017.8 |
| 20260502054205 | 8 | 228 | 0.0 | 0.0 | 0.00 | 0.00 | 0.00 | 90 | 1017.8 |
| 20260502053704 | 7 | 228 | 0.0 | 0.0 | 0.00 | 0.00 | 0.00 | 89 | 1017.8 |
| 20260502053451 | 7 | 228 | 0.0 | 0.0 | 0.00 | 0.00 | 0.00 | 89 | 1017.8 |
| 20260502052705 | 7 | 228 | 0.0 | 3.2 | 0.00 | 0.00 | 0.00 | 88 | 1017.8 |
| 20260502052204 | 7 | 228 | 0.0 | 3.2 | 0.00 | 0.00 | 0.00 | 88 | 1017.8 |
| 20260502051955 | 7 | 228 | 0.0 | 3.2 | 0.00 | 0.00 | 0.00 | 87 | 1017.8 |
| 20260502051205 | 7 | 230 | 0.0 | 1.6 | 0.00 | 0.00 | 0.00 | 85 | 1017.8 |
| 20260502050951 | 7 | 230 | 0.0 | 0.0 | 0.00 | 0.00 | 0.00 | 85 | 1017.8 |
| 20260502050203 | 7 | 230 | 0.0 | 0.0 | 0.00 | 0.00 | 0.00 | 85 | 1017.8 |
| 20260502045659 | 7 | 230 | 0.0 | 0.0 | 0.00 | 0.00 | 0.00 | 85 | 1017.8 |
| 20260502045200 | 7 | 230 | 0.0 | 0.0 | 0.00 | 0.00 | 0.00 | 85 | 1017.8 |
| 20260502044948 | 7 | 230 | 0.0 | 0.0 | 0.00 | 0.00 | 0.00 | 85 | 1017.7 |
| 20260502044442 | 7 | 230 | 0.0 | 0.0 | 0.00 | 0.00 | 0.00 | 85 | 1017.7 |
| 20260502043658 | 7 | 230 | 0.0 | 0.0 | 0.00 | 0.00 | 0.00 | 85 | 1017.7 |
| 20260502043156 | 7 | 230 | 0.0 | 0.0 | 0.00 | 0.00 | 0.00 | 85 | 1017.7 |
| 20260502042941 | 8 | 230 | 0.0 | 0.0 | 0.00 | 0.00 | 0.00 | 85 | 1017.7 |
| 20260502042155 | 8 | 230 | 0.0 | 0.0 | 0.00 | 0.00 | 0.00 | 85 | 1017.7 |
| 20260502041659 | 8 | 230 | 0.0 | 0.0 | 0.00 | 0.00 | 0.00 | 86 | 1017.8 |
| 20260502041200 | 8 | 230 | 0.0 | 0.0 | 0.00 | 0.00 | 0.00 | 86 | 1017.8 |
| 20260502040657 | 8 | 230 | 0.0 | 1.6 | 0.00 | 0.00 | 0.00 | 86 | 1017.8 |
| 20260502040158 | 8 | 230 | 0.0 | 1.6 | 0.00 | 0.00 | 0.00 | 86 | 1017.9 |